Temp
8 9 8 7 7 8 7 7 6 5 5 3 2 1 2 1 0 0 -0 -2 -1 -1 -1 -1 -1 -1 -1 -2 -2 -1 -0 0 1 3 4 2 3 2 3 4 4 4 3 3 4 4 5 6 7 7 7 7 7 7
8 8 8 7 7 8 7 7 6 4 5 4 3 2 1 1 1 0 -0 -2 -2 -2 -1 -2 -0 -0 -0 -1 -2 -2 -1 -1 -0 1 2 3 3 1 1 3 3 4 4 4 4 4 4 6 6 7 7 8 7 8
8 8 8 7 7 7 7 7 6 4 5 4 3 2 1 1 0 0 -1 -2 -2 -2 -1 0 1 0 -0 -0 -1 -1 -0 -1 -1 -2 -1 2 3 1 2 3 3 4 3 3 4 5 5 5 6 7 7 8 7 8
7 7 7 7 7 7 7 7 5 5 5 4 4 2 2 1 -0 -1 -1 -1 -2 -2 -3 0 0 0 0 0 -0 -1 -1 -1 -1 -1 -1 2 3 2 1 2 2 3 4 4 4 5 5 5 6 6 7 7 7 7
7 7 7 7 7 7 7 7 5 5 5 4 4 2 2 1 1 -1 -1 -1 -2 -1 -2 -2 1 1 -0 -1 -0 -0 -1 -1 -2 -1 0 3 3 3 2 0 1 3 3 4 4 5 5 5 6 6 6 6 6 6
6 7 7 7 7 7 8 5 5 5 5 4 3 3 2 1 1 -1 -1 -2 -2 -3 -2 -2 -1 1 0 -0 -0 -0 -1 -2 -2 -2 -0 2 4 4 3 2 3 5 5 5 5 6 6 5 5 5 5 5 5 5
6 7 7 7 7 7 8 5 6 5 5 4 3 3 2 1 0 -0 -1 -2 -2 -2 -2 -3 -3 -0 0 -0 -1 -1 -1 -1 -1 -1 0 2 3 4 3 4 4 5 5 5 5 5 5 5 5 5 5 5 4 4
6 7 7 6 6 7 6 5 5 5 4 3 3 3 1 0 -1 -1 -2 -2 -2 -2 -2 -5 -4 -1 -0 -1 -1 -1 -1 -1 -0 -0 2 3 4 3 3 4 5 4 4 4 5 5 5 5 4 4 4 4 4 4
6 6 5 6 6 7 4 5 5 4 3 3 2 1 -0 -1 -2 -2 -2 -2 -2 -2 -3 -4 -3 -4 -1 -1 -1 -1 -1 0 1 1 2 3 3 2 3 4 4 4 3 3 3 4 4 3 3 3 3 3 3 3
5 5 5 5 6 6 4 5 4 4 3 3 1 1 -1 -1 -1 -2 -2 -2 -2 -3 -3 -2 -3 -4 -1 -2 -1 -0 0 1 2 2 3 2 2 3 2 3 3 3 3 3 3 3 2 2 2 2 1 1 1 1
5 5 4 5 6 4 4 4 4 3 3 1 1 0 -1 -2 -2 -2 -2 -2 -2 -2 -3 -2 -3 -2 -1 -2 -2 -1 0 1 2 2 3 3 2 -1 0 1 1 1 1 2 2 1 1 1 1 1 1 0 -0 0
4 3 5 5 4 3 4 4 4 3 3 2 2 -0 -1 -2 -2 -5 -4 -2 -2 -3 -1 -1 -2 -2 -2 -2 -1 -1 0 1 0 2 3 3 1 -0 -0 -0 0 1 1 1 1 1 0 -0 -0 -0 -1 -1 -1 -1
2 3 4 4 2 4 3 3 3 3 3 1 1 -1 -2 -4 -5 -5 -6 -8 -9 -3 -2 -2 -3 -2 -2 -2 -1 -0 1 2 2 2 2 0 -1 -1 -1 -1 -1 -1 -1 -1 -1 -1 -1 -1 -1 -2 -2 -2 -2 -1
2 3 3 1 3 3 2 2 3 3 2 1 0 -5 -5 -6 -5 -5 -8 -8 -2 -2 -2 -3 -3 -3 -3 -2 -1 0 2 1 -1 0 -0 -0 -1 -1 -1 -1 -2 -2 -2 -2 -1 -1 -1 -1 -1 -1 -2 -1 -1 -2
1 3 -1 0 1 0 1 1 2 2 1 1 -0 -3 -7 -4 -4 -2 -2 -3 -2 -2 -3 -3 -4 -4 -4 -3 -2 0 2 1 1 1 -0 -2 -2 -1 -1 -2 -2 -2 -1 -1 -1 -1 -1 -1 -1 -2 -2 -2 -2 -2
1 -1 -1 -1 -1 -0 1 1 1 1 -0 -1 -2 -6 -6 -5 -6 -4 -4 -4 -3 -3 -4 -4 -4 -3 -6 -2 -1 1 2 -0 -1 -2 -3 -3 -3 -2 -2 -2 -2 -2 -2 -2 -1 -1 -1 -2 -2 -2 -2 -2 -3 -3
-1 -1 -1 -1 -1 -1 -1 -0 -0 -1 -1 -3 -4 -4 -4 -5 -5 -4 -3 -3 -4 -5 -7 -5 -5 -3 -6 -5 -0 -1 -2 -3 -4 -3 -3 -3 -3 -3 -2 -3 -2 -2 -3 -3 -3 -2 -2 -2 -2 -3 -3 -3 -4 -4
1 -1 -1 -1 -1 -1 -1 -1 -1 -1 -3 -4 -5 -5 -5 -4 -5 -5 -5 -4 -4 -4 -5 -6 -5 -5 -6 -6 -5 -4 -3 -3 -2 -2 -2 -2 -2 -3 -3 -3 -3 -3 -3 -3 -3 -3 -2 -2 -2 -3 -3 -3 -4 -4
2 1 -0 -1 -0 -1 -2 -2 -2 -3 -4 -4 -5 -5 -5 -5 -5 -5 -5 -5 -5 -4 -5 -5 -5 -5 -6 -5 -3 -2 -2 -3 -3 -1 -1 -2 -2 -3 -3 -3 -3 -3 -3 -3 -4 -4 -3 -3 -3 -3 -3 -3 -4 -4
-1 -2 -1 -1 -1 -1 -2 -3 -3 -3 -5 -5 -5 -6 -6 -6 -6 -6 -6 -6 -6 -6 -5 -5 -5 -4 -4 -1 -2 -2 -2 -3 -4 -3 -2 -2 -2 -2 -3 -3 -3 -3 -3 -3 -4 -5 -3 -3 -3 -3 -4 -4 -4 -4
-1 -2 -2 -2 -2 -2 -3 -4 -4 -4 -5 -5 -5 -5 -6 -6 -6 -7 -7 -6 -6 -7 -6 -5 -4 -1 -2 -2 -2 -2 -2 -3 -4 -4 -4 -4 -2 -3 -3 -3 -3 -3 -3 -3 -3 -3 -3 -3 -3 -4 -4 -4 -5 -5
-3 -3 -3 -2 -3 -3 -4 -5 -5 -5 -5 -6 -6 -6 -7 -7 -8 -9 -8 -8 -8 -6 -5 -2 -1 -1 -2 -2 -2 -2 -3 -3 -4 -4 -4 -4 -3 -3 -3 -3 -3 -3 -3 -3 -3 -4 -3 -3 -4 -4 -4 -4 -5 -5
-3 -3 -3 -3 -4 -4 -6 -6 -5 -6 -11 -8 -8 -10 -9 -9 -9 -9 -11 -8 -5 -2 -1 -1 -1 -1 -1 -2 -2 -2 -2 -3 -4 -4 -4 -4 -4 -4 -4 -3 -3 -3 -3 -3 -3 -3 -3 -4 -4 -4 -4 -5 -5 -5
-2 -3 -5 -6 -5 -8 -7 -7 -7 -8 -8 -10 -15 -12 -13 -9 -10 -11 -13 -6 -1 -0 0 0 -1 -1 -1 -1 -2 -2 -2 -3 -3 -4 -4 -4 -4 -4 -4 -4 -4 -3 -3 -3 -3 -4 -4 -4 -4 -4 -5 -5 -6 -6
-2 -6 -5 -6 -7 -7 -13 -13 -14 -13 -13 -17 -14 -14 -14 -10 -15 -17 -13 -4 -1 -0 0 -0 -0 -1 -1 -1 -2 -2 -2 -2 -3 -3 -4 -4 -4 -4 -4 -4 -4 -4 -4 -3 -4 -4 -4 -4 -5 -5 -5 -6 -6 -7
-9 -7 -8 -6 -10 -10 -12 -13 -15 -14 -15 -15 -15 -11 -11 -14 -13 -10 -10 -2 -1 -0 -0 0 -0 -1 -1 -1 -1 -1 -2 -2 -2 -3 -3 -3 -4 -4 -4 -4 -4 -4 -4 -4 -4 -4 -4 -4 -5 -5 -6 -6 -7 -8
-10 -11 -7 -7 -7 -7 -10 -10 -10 -12 -15 -13 -15 -14 -13 -10 -12 -8 -1 -1 -2 -2 -1 -0 -0 -1 -1 -1 -1 -1 -1 -2 -2 -2 -2 -3 -3 -4 -4 -4 -4 -4 -4 -4 -4 -4 -4 -4 -5 -6 -6 -7 -8 -9
-6 -7 -10 -8 -8 -8 -12 -13 -15 -14 -12 -7 -9 -13 -10 -10 -7 -1 -1 -1 -1 -1 -1 -0 -1 -1 -1 -1 -1 -1 -1 -2 -2 -2 -2 -2 -2 -2 -3 -3 -4 -4 -4 -4 -4 -4 -4 -4 -5 -6 -7 -8 -9 -9
-7 -7 -7 -9 -9 -9 -8 -10 -10 -5 -4 -5 -10 -11 -7 -2 -1 -1 -1 -1 -2 -2 -1 -1 -1 -1 -1 -1 -1 -1 -1 -2 -2 -2 -2 -2 -1 -2 -3 -3 -3 -4 -4 -4 -4 -4 -5 -5 -6 -7 -8 -8 -9 -9
-7 -7 -7 -10 -13 -12 -5 -4 -4 -4 -4 -4 -4 -4 -3 -3 -3 -3 -3 -2 -2 -2 -1 -1 -1 -1 -1 -1 -2 -2 -2 -2 -3 -3 -2 -2 -2 -2 -3 -4 -4 -4 -4 -5 -5 -5 -5 -5 -6 -7 -8 -9 -9 -9
-7 -8 -7 -8 -10 -6 -4 -4 -4 -5 -5 -5 -5 -6 -5 -4 -4 -3 -2 -1 -1 -1 -1 -1 -1 -1 -2 -2 -2 -3 -2 -2 -3 -2 -2 -2 -3 -3 -4 -4 -5 -5 -5 -6 -6 -6 -6 -7 -7 -8 -8 -9 -9 -9
-8 -8 -8 -12 -8 -6 -6 -6 -6 -6 -6 -6 -6 -6 -6 -7 -6 -4 -3 -2 -2 -1 -1 -2 -2 -2 -2 -2 -3 -3 -3 -3 -3 -3 -3 -3 -3 -3 -4 -5 -6 -6 -6 -6 -6 -6 -7 -8 -8 -8 -9 -9 -9 -10
-10 -10 -10 -9 -9 -8 -8 -8 -8 -9 -10 -8 -6 -6 -7 -7 -6 -4 -3 -3 -2 -2 -3 -3 -3 -3 -3 -3 -3 -3 -3 -3 -3 -3 -3 -3 -3 -4 -4 -5 -6 -7 -7 -7 -7 -7 -8 -8 -8 -9 -9 -10 -10 -10
Height
1432 1443 1455 1463 1468 1474 1479 1482 1483 1485 1485 1485 1485 1485 1485 1484 1483 1482 1480 1477 1478 1476 1474 1473 1475 1476 1475 1476 1478 1472 1464 1465 1460 1456 1453 1456 1454 1453 1452 1447 1446 1447 1449 1449 1446 1446 1445 1435 1434 1435 1436 1432 1432 1433
1424 1435 1447 1457 1463 1470 1475 1478 1481 1482 1484 1484 1484 1483 1483 1483 1482 1481 1480 1478 1476 1476 1475 1473 1473 1474 1475 1475 1474 1472 1474 1472 1469 1467 1462 1456 1455 1457 1458 1452 1445 1446 1446 1446 1444 1443 1438 1436 1435 1434 1433 1434 1434 1435
1416 1430 1440 1450 1458 1465 1471 1475 1478 1480 1482 1483 1483 1482 1482 1481 1481 1480 1479 1478 1476 1474 1474 1473 1474 1475 1473 1473 1474 1474 1472 1471 1471 1472 1469 1462 1457 1459 1457 1451 1449 1443 1442 1444 1441 1438 1437 1436 1436 1435 1435 1435 1436 1437
1410 1425 1437 1445 1453 1461 1466 1472 1474 1477 1480 1481 1482 1481 1481 1480 1480 1478 1477 1477 1476 1475 1475 1475 1473 1471 1471 1471 1470 1470 1472 1471 1473 1471 1467 1460 1458 1456 1456 1453 1452 1445 1442 1441 1441 1438 1437 1436 1436 1436 1436 1437 1437 1438
1402 1417 1431 1440 1448 1457 1463 1468 1471 1475 1477 1479 1480 1479 1479 1479 1478 1478 1478 1478 1477 1479 1477 1474 1472 1473 1472 1469 1468 1468 1468 1469 1472 1472 1467 1457 1454 1454 1452 1452 1450 1441 1441 1443 1441 1436 1436 1436 1436 1437 1438 1438 1439 1439
1398 1415 1427 1436 1444 1453 1460 1463 1468 1472 1474 1477 1478 1478 1479 1478 1477 1478 1479 1479 1477 1475 1476 1477 1473 1471 1471 1469 1467 1466 1465 1467 1466 1469 1465 1458 1453 1453 1451 1452 1439 1438 1438 1437 1437 1436 1436 1437 1438 1439 1439 1439 1440 1440
1395 1410 1423 1432 1442 1449 1456 1460 1465 1469 1471 1474 1475 1476 1477 1477 1477 1479 1481 1479 1477 1476 1477 1477 1474 1472 1470 1468 1467 1465 1466 1466 1465 1466 1461 1456 1453 1451 1449 1446 1437 1437 1436 1436 1436 1437 1437 1438 1438 1439 1439 1439 1439 1439
1388 1406 1419 1428 1438 1446 1452 1457 1463 1465 1470 1471 1473 1474 1476 1476 1477 1479 1479 1479 1477 1478 1478 1480 1478 1473 1472 1468 1468 1466 1466 1467 1465 1463 1455 1451 1450 1448 1443 1435 1435 1436 1437 1437 1436 1436 1437 1437 1438 1438 1439 1439 1438 1438
1389 1404 1416 1425 1435 1442 1449 1455 1460 1463 1466 1468 1471 1474 1476 1478 1477 1478 1479 1479 1478 1481 1480 1483 1484 1482 1473 1469 1468 1466 1466 1463 1459 1457 1452 1449 1444 1443 1433 1432 1433 1434 1436 1436 1437 1437 1437 1437 1437 1438 1438 1437 1437 1437
1388 1402 1413 1423 1432 1441 1446 1452 1456 1462 1463 1467 1471 1473 1475 1477 1476 1479 1480 1480 1479 1481 1482 1484 1485 1482 1478 1473 1469 1466 1459 1455 1453 1451 1448 1446 1438 1431 1432 1431 1432 1433 1433 1434 1435 1436 1437 1437 1437 1436 1436 1436 1436 1435
1385 1401 1414 1422 1430 1439 1444 1449 1454 1457 1461 1466 1467 1471 1475 1477 1478 1480 1481 1481 1481 1483 1484 1483 1482 1480 1477 1475 1471 1467 1460 1454 1449 1446 1445 1439 1435 1430 1431 1432 1432 1432 1432 1433 1434 1434 1434 1435 1435 1434 1434 1434 1433 1432
1388 1401 1412 1421 1430 1436 1442 1447 1453 1454 1460 1464 1466 1470 1475 1476 1478 1480 1483 1482 1480 1482 1482 1480 1480 1479 1475 1473 1469 1465 1457 1451 1452 1445 1441 1436 1433 1432 1432 1432 1432 1432 1432 1432 1433 1433 1433 1433 1433 1432 1432 1431 1431 1429
1389 1401 1411 1421 1428 1434 1441 1446 1449 1454 1458 1461 1465 1469 1471 1476 1481 1483 1489 1488 1486 1478 1479 1479 1479 1477 1475 1472 1467 1461 1456 1445 1440 1438 1437 1435 1435 1434 1432 1432 1432 1432 1431 1431 1431 1431 1431 1431 1431 1431 1430 1430 1429 1428
1392 1402 1412 1421 1427 1434 1439 1445 1448 1453 1455 1459 1463 1471 1469 1476 1473 1473 1475 1474 1475 1475 1478 1478 1478 1477 1474 1471 1465 1457 1447 1444 1447 1443 1440 1436 1435 1434 1433 1432 1432 1432 1431 1431 1431 1432 1432 1432 1431 1431 1430 1430 1428 1427
1394 1405 1414 1422 1428 1434 1439 1445 1449 1451 1454 1458 1461 1464 1469 1467 1469 1471 1473 1473 1474 1475 1476 1477 1477 1476 1472 1469 1461 1451 1442 1441 1440 1440 1441 1440 1436 1433 1432 1432 1431 1431 1432 1432 1432 1432 1432 1432 1431 1431 1430 1429 1428 1427
1397 1409 1416 1423 1429 1435 1440 1444 1448 1451 1454 1457 1458 1461 1464 1466 1469 1471 1472 1472 1473 1474 1475 1476 1475 1471 1471 1464 1455 1445 1439 1445 1450 1449 1446 1440 1435 1432 1430 1429 1430 1430 1431 1432 1432 1432 1432 1431 1431 1430 1430 1429 1427 1426
1400 1407 1417 1425 1432 1435 1439 1444 1448 1451 1454 1456 1458 1458 1461 1464 1465 1468 1470 1471 1473 1474 1476 1477 1476 1469 1468 1467 1452 1449 1451 1452 1451 1447 1444 1440 1434 1430 1427 1428 1428 1429 1430 1431 1431 1432 1431 1431 1430 1430 1429 1428 1427 1426
1401 1410 1419 1426 1429 1435 1441 1444 1447 1451 1453 1454 1457 1458 1461 1463 1465 1467 1468 1469 1471 1473 1474 1475 1473 1470 1468 1466 1456 1451 1449 1448 1445 1443 1440 1437 1433 1430 1428 1427 1428 1428 1428 1429 1429 1431 1431 1430 1429 1429 1428 1427 1426 1425
1405 1413 1421 1426 1431 1435 1441 1447 1449 1449 1452 1454 1456 1458 1460 1462 1463 1464 1465 1467 1469 1471 1472 1472 1470 1464 1458 1450 1446 1445 1444 1443 1440 1437 1436 1435 1432 1429 1428 1427 1427 1427 1427 1427 1427 1429 1429 1429 1428 1427 1427 1426 1425 1423
1411 1417 1422 1428 1432 1436 1442 1447 1448 1448 1451 1453 1455 1457 1458 1460 1460 1460 1462 1465 1467 1469 1468 1465 1457 1449 1447 1445 1444 1443 1440 1438 1436 1433 1430 1432 1431 1428 1427 1427 1426 1426 1425 1425 1425 1426 1427 1427 1426 1426 1425 1424 1423 1422
1415 1420 1425 1428 1433 1438 1443 1445 1447 1449 1451 1453 1454 1455 1455 1456 1457 1457 1459 1462 1465 1462 1455 1448 1443 1440 1442 1441 1439 1438 1436 1432 1430 1429 1426 1425 1427 1426 1425 1425 1424 1424 1424 1424 1424 1424 1425 1425 1424 1424 1423 1422 1421 1420
1416 1423 1426 1430 1435 1439 1443 1447 1448 1449 1452 1453 1454 1453 1453 1453 1454 1457 1458 1459 1455 1444 1442 1438 1437 1437 1438 1437 1436 1433 1430 1427 1424 1421 1420 1420 1420 1421 1421 1421 1421 1421 1422 1423 1423 1422 1422 1423 1422 1422 1421 1420 1419 1417
1420 1425 1428 1432 1437 1441 1448 1447 1448 1449 1451 1452 1452 1452 1451 1450 1451 1453 1452 1447 1438 1433 1433 1434 1434 1435 1435 1434 1433 1431 1428 1425 1421 1418 1416 1417 1417 1417 1417 1418 1419 1420 1420 1421 1421 1421 1421 1420 1420 1419 1418 1417 1416 1414
1424 1426 1430 1433 1438 1443 1445 1447 1450 1450 1451 1451 1454 1454 1450 1449 1450 1450 1447 1434 1427 1427 1428 1429 1431 1432 1432 1431 1430 1430 1427 1424 1420 1417 1415 1415 1415 1415 1415 1416 1417 1419 1419 1419 1419 1419 1418 1418 1417 1416 1415 1413 1412 1409
1425 1432 1433 1437 1440 1443 1447 1449 1450 1451 1454 1455 1456 1451 1448 1449 1451 1451 1440 1423 1420 1420 1422 1426 1427 1429 1428 1429 1429 1428 1426 1423 1421 1418 1417 1415 1414 1415 1415 1415 1416 1417 1417 1417 1417 1417 1416 1415 1414 1413 1411 1409 1407 1405
1429 1433 1435 1435 1440 1442 1445 1451 1452 1452 1452 1454 1451 1447 1447 1448 1451 1442 1429 1421 1419 1417 1418 1421 1424 1424 1426 1426 1426 1425 1424 1422 1420 1419 1417 1416 1414 1413 1413 1413 1414 1415 1415 1415 1415 1414 1413 1412 1411 1409 1407 1405 1402 1399
1431 1433 1434 1436 1437 1438 1442 1444 1446 1446 1449 1449 1445 1446 1447 1449 1448 1429 1424 1421 1417 1414 1413 1419 1422 1423 1423 1423 1422 1422 1421 1419 1418 1417 1415 1414 1413 1412 1411 1411 1412 1412 1412 1412 1412 1411 1410 1409 1407 1405 1402 1400 1397 1395
1426 1429 1434 1436 1436 1436 1438 1440 1442 1443 1438 1437 1440 1444 1441 1437 1429 1423 1423 1422 1420 1418 1418 1420 1421 1421 1420 1419 1419 1417 1417 1416 1415 1414 1413 1411 1410 1409 1408 1408 1408 1408 1409 1409 1409 1408 1407 1405 1403 1400 1398 1396 1395 1393
1427 1428 1430 1432 1433 1433 1432 1432 1431 1429 1429 1429 1430 1430 1424 1422 1422 1421 1421 1419 1418 1419 1419 1419 1418 1417 1415 1414 1412 1412 1411 1411 1410 1409 1408 1407 1406 1406 1404 1403 1403 1404 1404 1405 1405 1404 1403 1401 1399 1397 1395 1394 1393 1391
1425 1426 1427 1428 1429 1429 1424 1425 1424 1424 1425 1425 1423 1419 1417 1416 1415 1415 1414 1413 1412 1410 1409 1408 1407 1406 1403 1404 1402 1403 1404 1404 1404 1403 1402 1401 1401 1400 1399 1399 1399 1399 1400 1401 1401 1401 1399 1397 1395 1394 1393 1392 1391 1390
1422 1424 1426 1427 1425 1421 1421 1421 1421 1421 1420 1419 1417 1414 1409 1406 1404 1403 1403 1402 1401 1399 1397 1395 1395 1394 1393 1393 1392 1391 1391 1394 1394 1394 1395 1395 1395 1395 1395 1394 1395 1395 1396 1397 1397 1397 1396 1395 1393 1393 1392 1392 1392 1390
1422 1423 1424 1425 1421 1419 1418 1417 1415 1414 1412 1411 1408 1405 1403 1401 1397 1395 1392 1391 1390 1389 1388 1387 1386 1385 1385 1384 1384 1385 1385 1386 1387 1388 1388 1389 1389 1389 1389 1390 1390 1392 1393 1394 1394 1394 1393 1392 1392 1392 1392 1392 1392 1391
1422 1424 1424 1423 1419 1415 1414 1415 1412 1409 1406 1402 1399 1398 1396 1395 1391 1387 1385 1384 1384 1383 1382 1381 1380 1379 1378 1378 1378 1379 1379 1380 1381 1382 1382 1383 1383 1384 1385 1386 1387 1388 1390 1391 1391 1391 1391 1391 1392 1392 1392 1392 1392 1392
Wind_Speed
51 44 37 35 28 22 19 14 11 7 4 3 3 6 9 10 11 11 10 10 10 5 5 3 4 5 3 1 2 9 7 4 5 4 3 2 1 2 2 2 2 1 1 0 1 2 0 4 1 3 2 3 3 9
53 48 40 37 29 24 21 14 11 8 4 3 3 6 6 9 11 11 9 10 9 4 5 12 5 4 5 9 9 3 3 2 4 3 3 2 2 2 1 3 3 1 2 2 3 3 3 3 2 1 1 5 6 8
55 44 38 37 31 26 22 16 13 10 6 2 3 5 6 7 10 11 9 9 9 5 4 6 7 6 5 12 11 4 2 1 2 7 3 2 3 1 2 2 3 3 2 0 2 1 1 2 3 4 5 6 6 5
55 47 44 39 32 27 22 18 15 10 6 3 1 4 5 7 8 9 9 6 9 3 3 2 11 6 3 5 5 9 14 10 10 11 4 3 2 2 2 3 2 4 3 1 3 3 0 1 3 4 6 6 5 4
58 48 46 40 33 28 22 19 14 10 7 3 1 2 4 7 9 7 4 7 10 6 0 9 6 3 7 9 9 8 10 12 8 5 3 2 2 1 1 1 3 3 3 3 3 3 1 1 5 4 4 5 5 3
54 48 44 39 34 29 24 19 14 11 7 4 1 3 4 5 6 2 1 2 8 10 2 2 7 6 12 13 7 6 11 10 6 3 5 6 4 3 1 2 5 4 5 5 2 2 2 4 5 4 3 3 2 2
56 51 43 39 34 29 24 20 15 11 8 6 2 4 3 2 4 2 1 2 8 5 2 4 8 4 12 7 6 2 6 3 6 4 5 4 4 2 2 3 5 5 3 2 3 5 4 5 2 3 3 2 2 2
67 55 48 40 35 30 25 20 15 11 9 6 2 2 3 10 5 2 3 2 4 2 3 1 3 6 12 5 5 2 3 5 6 5 5 4 2 4 4 6 6 4 1 1 1 1 0 2 5 4 2 1 1 2
62 54 45 39 34 29 25 20 16 12 11 6 2 5 10 2 2 1 3 4 4 3 3 3 2 3 12 6 5 3 5 3 5 3 4 3 2 5 5 5 2 2 3 2 2 1 1 2 3 3 3 5 6 6
55 49 43 38 34 28 25 20 16 15 11 7 9 4 4 2 5 7 2 2 3 5 4 2 2 3 7 4 3 5 4 2 2 4 3 3 4 12 7 4 2 3 3 3 3 2 2 3 2 3 4 5 6 8
52 47 42 38 32 29 24 20 17 16 12 9 6 5 6 9 4 2 2 2 1 2 1 2 4 4 6 2 2 3 3 2 2 3 2 2 3 1 1 3 3 2 1 1 2 3 3 4 5 6 7 8 9 10
52 45 41 35 31 28 23 19 17 14 9 8 7 10 7 3 2 4 1 0 1 2 1 3 4 8 6 4 4 4 3 2 4 3 2 3 2 1 3 3 2 1 2 3 4 4 5 5 5 6 7 7 8 8
47 44 39 34 31 25 22 18 15 11 9 11 5 5 4 1 5 4 3 3 1 4 3 4 4 3 4 4 7 3 4 4 1 3 3 1 5 3 4 3 2 3 5 4 3 2 2 1 1 2 2 4 5 6
46 41 36 34 27 24 22 18 14 12 6 4 5 1 2 1 3 3 4 4 2 2 2 6 5 3 3 3 3 3 3 2 3 1 3 2 13 11 7 6 5 3 3 4 3 2 2 2 3 3 4 6 6 7
42 37 34 29 26 24 20 16 12 9 4 3 4 3 3 3 3 5 3 2 3 2 3 4 5 4 3 3 3 4 3 2 2 2 3 16 20 13 11 10 7 8 5 2 2 2 2 2 2 4 6 7 7 8
39 34 30 27 24 21 17 15 10 6 4 3 3 4 4 3 3 6 7 5 4 1 3 1 3 3 4 3 3 3 6 4 4 5 19 24 20 14 11 11 10 10 6 3 1 1 2 4 5 6 7 8 8 8
36 29 29 26 24 21 17 13 5 4 3 2 3 4 6 3 3 3 4 6 3 2 1 1 2 4 3 3 3 2 1 2 12 22 22 23 19 16 9 10 11 11 10 5 2 2 3 4 6 6 6 7 8 8
23 33 31 28 23 20 15 5 4 4 2 3 3 4 5 3 4 3 3 7 4 3 3 4 2 2 4 4 3 3 5 10 14 20 23 21 18 11 7 7 10 11 11 10 6 2 4 5 6 6 7 7 7 8
31 30 27 23 21 11 5 4 2 3 3 4 3 4 2 3 5 6 6 6 7 6 2 3 4 4 4 8 5 8 13 16 20 23 22 16 13 9 7 7 8 10 11 6 3 2 6 6 6 6 7 8 8 9
31 29 25 23 16 5 4 3 3 3 3 4 6 5 3 3 5 4 6 8 9 5 6 4 5 7 9 11 12 19 21 21 23 24 24 13 11 10 8 8 9 10 10 6 3 3 7 7 7 7 8 9 9 9
29 28 23 19 9 6 4 4 4 3 4 3 3 4 3 5 4 5 7 12 8 6 7 16 23 19 14 15 16 19 22 21 23 21 23 24 17 13 10 9 12 12 10 8 6 5 7 7 7 8 10 10 10 12
28 24 21 11 4 4 4 3 4 4 2 2 2 2 3 2 4 4 7 8 8 11 13 13 12 8 9 10 13 14 17 17 15 15 15 16 17 12 9 8 11 11 10 8 7 6 6 7 8 9 11 11 12 14
25 21 9 4 4 3 2 5 2 2 2 1 1 1 3 3 4 7 5 9 10 12 13 13 11 8 7 8 10 11 12 13 11 10 9 9 9 9 8 8 6 6 5 5 6 6 7 8 9 11 12 12 14 16
17 5 4 4 3 3 5 2 2 2 2 1 2 3 3 2 4 3 3 7 14 14 14 12 10 8 7 6 6 7 10 11 11 9 6 5 6 5 5 6 4 4 5 6 5 6 7 9 11 12 13 14 17 20
4 3 3 4 3 4 3 2 3 3 1 1 1 4 2 2 0 2 4 9 17 16 16 16 13 10 6 4 6 7 9 11 12 11 8 5 4 5 6 7 5 5 5 5 5 7 9 11 11 13 15 18 20 22
4 1 3 4 2 4 4 3 4 5 3 2 5 2 1 2 2 6 4 6 11 11 17 24 18 11 6 2 4 7 9 12 13 11 9 8 5 4 6 9 8 7 7 6 7 8 9 11 13 15 17 18 19 20
3 2 3 5 5 6 4 3 3 3 3 5 2 2 2 1 5 5 7 12 15 11 10 24 16 10 4 5 8 10 14 15 15 15 14 11 10 9 9 9 9 9 8 8 8 9 11 13 16 18 17 15 16 16
3 5 5 9 4 4 4 3 4 5 4 5 8 3 7 8 5 1 3 8 15 18 3 16 16 15 15 16 18 19 20 22 21 19 16 16 14 12 12 12 12 12 11 11 11 11 14 16 17 17 15 12 11 13
4 6 8 5 3 4 7 8 7 8 7 13 7 4 7 10 17 21 21 18 21 23 24 20 20 24 28 29 30 30 29 28 26 23 21 17 15 13 14 13 14 14 14 13 13 13 15 16 16 13 11 10 11 11
4 10 4 5 5 5 7 12 7 11 11 15 15 15 21 29 31 28 30 31 33 34 32 32 31 32 34 35 36 35 33 31 29 27 23 18 16 16 15 13 13 13 14 13 12 12 14 15 14 11 9 7 7 7
3 10 1 4 5 6 12 16 18 20 20 22 25 27 33 34 36 32 28 26 27 28 31 33 34 33 32 28 27 26 27 24 23 20 16 15 16 15 15 14 13 11 11 10 10 11 11 11 7 3 2 4 5 6
6 8 5 2 5 7 9 7 8 8 12 17 18 22 20 16 10 19 14 14 18 21 20 21 23 21 20 22 20 18 16 14 12 13 15 17 16 16 15 13 12 12 11 10 9 9 7 4 1 2 2 3 4 5
4 5 6 5 4 4 3 3 4 5 7 7 10 13 15 9 8 9 13 16 16 16 17 19 21 20 18 17 17 15 13 13 15 17 16 15 16 15 13 11 12 11 9 7 6 5 3 3 3 3 3 4 4 5
Wind_Direction
199 192 199 196 188 197 199 194 176 168 114 98 70 61 30 26 21 12 7 16 29 313 278 228 304 273 306 5 354 318 334 0 343 5 18 339 341 324 339 281 314 277 35 344 103 70 2 2 34 146 247 354 146 141
195 193 194 193 185 194 194 186 180 170 137 106 77 54 19 19 14 11 360 357 353 319 307 313 332 317 285 282 266 294 272 276 336 343 352 318 332 350 10 313 348 336 176 226 169 214 264 318 294 337 68 98 97 122
189 186 190 190 186 188 191 187 184 172 160 130 76 58 18 13 8 10 2 354 350 331 350 46 41 351 323 307 297 213 278 356 27 1 289 291 285 136 336 283 306 300 173 241 30 286 311 73 79 103 114 110 97 104
181 186 192 188 184 188 186 190 175 170 165 152 52 61 9 8 357 352 350 15 33 24 47 331 343 15 325 325 310 256 258 275 311 320 260 262 262 192 248 260 206 232 6 250 286 297 312 236 158 116 107 103 99 98
177 184 188 185 182 188 185 185 169 172 167 167 247 42 2 357 345 352 75 76 42 22 276 305 332 14 343 327 293 254 242 248 285 305 271 258 269 264 207 350 263 194 208 162 233 259 201 193 160 142 126 108 96 98
176 180 188 183 182 184 190 173 173 175 164 187 203 346 353 2 349 116 239 75 16 32 84 333 321 334 328 328 324 269 230 236 211 234 267 272 264 216 262 263 264 281 274 265 292 328 236 159 158 153 140 94 63 36
174 181 187 183 184 181 186 170 178 174 165 187 192 320 348 97 116 90 44 48 5 16 75 316 329 330 348 355 327 331 191 196 195 250 242 261 277 257 248 242 252 342 329 253 185 137 114 161 191 180 173 140 96 49
173 183 187 178 179 181 177 170 178 167 187 168 224 325 138 132 112 85 63 341 359 62 65 73 287 335 359 339 326 263 205 213 231 255 247 228 253 240 246 239 253 270 269 202 184 235 256 189 183 186 197 232 282 305
178 179 174 176 175 180 170 171 175 172 177 169 190 133 136 144 105 39 82 90 68 71 101 66 1 296 343 339 307 266 217 227 217 245 248 197 215 233 231 223 242 216 208 248 198 180 169 190 196 225 272 291 297 293
171 170 172 172 172 173 165 172 165 179 163 169 152 152 152 118 121 128 69 56 39 26 43 46 299 282 323 336 297 293 239 241 229 227 231 224 252 250 248 246 228 206 217 224 236 254 243 217 234 270 292 299 301 302
168 169 171 168 168 166 163 165 172 163 159 167 154 130 140 144 125 95 75 49 56 46 42 279 259 299 301 247 275 255 293 252 251 217 227 229 271 280 190 172 166 173 197 286 264 256 266 262 269 279 286 293 300 301
166 165 166 164 165 157 161 160 166 157 164 165 142 130 140 141 121 92 13 73 149 176 303 287 300 302 294 272 259 260 253 221 254 165 237 252 301 5 164 179 179 234 261 267 280 280 279 279 282 288 295 303 311 317
162 165 162 162 153 155 156 153 144 149 156 142 135 132 152 97 50 131 188 293 284 176 201 324 327 283 298 262 265 252 253 242 204 218 234 237 339 304 216 217 225 258 272 264 244 234 230 271 335 348 348 343 336 331
163 159 159 150 153 155 144 146 142 151 143 141 162 112 126 289 234 191 177 173 128 182 322 322 279 263 274 271 249 257 251 264 319 260 246 7 352 337 267 239 249 241 175 143 113 83 51 25 5 346 337 337 337 337
155 154 146 147 147 143 145 142 143 143 131 161 168 179 177 144 133 156 138 177 189 247 293 303 279 245 256 271 242 272 250 236 225 339 11 335 328 317 281 248 244 212 188 159 112 90 58 28 3 353 344 343 343 343
147 141 147 145 146 147 145 138 131 137 146 162 138 101 128 117 182 191 206 237 171 252 313 211 262 262 261 248 259 257 327 43 360 330 318 333 331 317 286 249 234 215 194 188 162 38 11 360 349 338 333 337 339 339
145 147 149 149 154 150 148 141 134 137 163 125 93 127 135 116 147 159 172 145 132 38 96 231 234 238 328 289 254 53 141 267 312 317 326 333 328 324 294 257 229 218 193 186 195 317 327 330 327 327 330 333 336 339
143 147 153 160 155 146 147 130 140 156 117 127 137 168 175 160 127 163 184 189 185 192 186 226 283 255 228 220 255 206 249 302 329 325 325 330 329 321 299 252 229 223 218 207 182 294 301 317 321 319 323 330 334 334
145 148 153 157 158 129 121 141 142 124 116 136 154 177 199 217 229 225 210 211 216 206 212 238 240 227 235 227 239 292 312 306 309 310 314 320 327 317 294 256 235 225 227 207 182 286 299 313 313 313 321 327 329 329
137 143 150 152 148 109 104 106 152 125 150 160 171 175 193 209 210 208 200 193 186 194 220 222 225 227 227 255 283 298 301 299 299 299 299 304 296 321 295 263 245 239 244 237 252 289 302 307 310 313 321 325 324 324
139 143 152 153 123 90 98 127 120 125 135 154 174 197 220 228 225 208 205 193 196 223 234 233 242 261 268 275 287 295 300 298 286 278 279 286 285 284 286 275 255 254 256 263 268 285 297 300 310 317 320 321 320 321
140 151 145 142 100 101 91 116 115 127 136 133 184 228 241 218 196 186 178 187 230 233 221 246 261 260 268 287 297 308 317 313 296 283 276 275 276 273 264 275 262 255 256 262 268 282 290 295 301 309 313 314 314 315
140 146 126 115 103 96 117 146 129 116 104 143 217 334 234 218 182 178 226 228 244 250 255 250 244 251 274 295 306 320 331 334 327 312 294 273 266 267 258 258 255 233 230 256 275 277 282 292 302 308 309 309 310 313
136 103 91 89 80 123 126 105 133 125 114 66 69 288 267 206 182 200 247 247 248 254 247 227 220 235 257 283 313 333 345 349 354 352 333 285 270 256 229 212 211 236 270 283 283 287 295 301 305 307 309 312 312 312
110 62 98 86 109 115 80 54 21 57 233 221 130 292 278 185 7 250 233 261 265 256 235 206 209 215 236 273 303 326 347 355 359 357 357 344 283 266 245 228 239 276 288 282 287 299 306 311 313 314 314 313 313 312
82 107 128 156 150 131 168 132 192 205 175 218 233 241 172 85 19 255 242 305 311 289 231 203 198 185 196 231 336 347 347 346 345 344 341 335 320 293 266 256 249 272 283 280 295 307 315 317 315 314 315 315 313 313
112 197 143 153 147 144 117 139 151 143 161 205 219 138 97 176 248 257 328 340 331 315 238 203 202 210 249 304 326 336 339 339 336 331 324 313 303 289 273 263 264 272 273 278 292 309 319 321 320 319 320 318 315 319
105 158 159 173 163 172 135 141 162 208 228 188 148 188 186 196 233 211 354 0 18 11 309 209 228 254 271 286 295 304 312 317 317 319 315 311 307 295 279 266 260 258 262 271 286 301 313 321 324 326 324 322 318 317
167 173 168 136 158 190 215 193 216 220 211 188 179 219 231 247 270 285 292 285 290 299 298 293 280 277 278 280 282 286 292 297 300 303 305 301 308 306 291 272 261 256 257 265 277 292 307 319 323 324 323 323 324 329
206 184 161 154 158 218 234 206 229 244 246 235 244 256 261 270 283 285 279 280 283 284 283 282 282 281 280 279 279 278 279 282 285 289 291 291 296 296 293 283 260 250 249 258 272 293 309 319 321 326 334 348 5 16
169 179 175 199 238 246 249 252 256 261 261 260 260 258 267 280 287 288 286 286 282 278 274 274 277 280 287 291 290 288 286 281 277 274 270 278 287 287 284 275 258 250 244 253 275 292 304 308 314 331 21 42 39 36
182 191 197 228 260 257 267 258 249 244 252 256 262 267 268 268 262 286 285 280 276 279 288 293 295 298 290 286 285 284 283 275 262 264 275 282 278 275 272 267 246 236 244 257 271 288 295 291 176 115 80 60 50 46
195 213 235 270 273 255 243 245 251 271 240 242 246 257 257 254 253 262 268 274 284 291 292 294 296 297 296 285 285 284 277 274 273 273 270 269 271 270 264 250 234 230 236 249 269 265 212 171 153 124 100 80 69 61